Tracking 32414 objects as of 4-Dec-2025
HD Live streaming from Space Station
objects crossing your sky now

SL-8 R/B

Track SL-8 R/B now!
10-day predictions


NORAD ID: 4370
Int'l Code: 1970-028B
Perigee: 680.5 km
Apogee: 700.0 km
Inclination: 74.0 °
Period: 98.4 minutes
Semi major axis: 7061 km
RCS: 4.6155 m2 (large)
Launch date: April 11, 1970
Source: Commonwealth of Independent States (former USSR) (CIS)
Launch site: PLESETSK MISSILE AND SPACE COMPLEX (PKMTR)

Note: This is a ROCKET BODY
Your satellite tracking list
Your tracking list is empty




NASA's NSSDC Master Catalog

Two Line Element Set (TLE):
1 04370U 70028B   25338.38542475  .00001356  00000-0  26938-3 0  9996
2 04370  74.0387 303.9905 0013817 158.1303 202.0457 14.63124696462975
Source of the keplerian elements: AFSPC